Home > Weather > Hamar > Past weeks

Flag for Norway Weather for the Past 2 Weeks in Hamar, Norway

Now
64 °F

Mild.


Feels Like: 64 °F
Forecast: 35 / 64 °F
Wind: 5 mph from Southwest

Location: Haugedalshogda

Current Time: May 6, 2016 at 5:59:12 PM

Latest Report: May 6, 2016 at 5:00 PM


Visibility: N/A

Pressure: 30.14 "Hg

Humidity: 28%

Dew Point: 30 °F

Location of HamarLocation

Historic Weather in Hamar — Graph

°F

Hamar Temperature Yesterday

Maximum temperature yesterday: 61 °F (at 5:00 PM)
Minimum temperature yesterday: 24 °F (at 2:00 AM)
Average temperature yesterday: 45 °F

High & Low Weather Summary for the Past Weeks

 TemperatureHumidityPressure
High62 °F (May 6, 3:00 PM)100% (May 4, 3:00 AM)30.35 "Hg (May 4, 3:00 AM)
Low14 °F (Apr 23, 5:00 AM)20% (Apr 21, 4:00 PM)29.58 "Hg (Apr 29, 5:00 AM)
Average38 °F66%30.00 "Hg
* Reported Apr 21 4:00 PM — May 6 4:00 PM, Hamar, Weather by CustomWeather, © 2016

Note: Actual official high and low records may vary slightly from our data, if they occured in-between our weather recording intervals... More about our weather records

Advertising

Hamar Weather History for the Previous 24 Hours

Scroll right to see more
 ConditionsComfort  
Time TempWeatherWind HumidityBarometerVisibility
4:00 PM
Fri, May 6
61 °FRefreshingly cool.5 mph31%30.16 "HgN/A
3:00 PM62 °FRefreshingly cool.6 mph29%30.16 "HgN/A
2:00 PM61 °FRefreshingly cool.5 mph30%30.17 "HgN/A
1:00 PM60 °FRefreshingly cool.3 mph31%30.18 "HgN/A
12:00 PM58 °FRefreshingly cool.5 mph35%30.19 "HgN/A
11:00 AM56 °FRefreshingly cool.5 mph37%30.20 "HgN/A
10:00 AM52 °FCool.3 mph56%30.22 "HgN/A
9:00 AM48 °FCool.3 mph66%30.24 "HgN/A
8:00 AM44 °FQuite cool.1 mph72%30.25 "HgN/A
7:00 AM38 °FChilly.1 mph89%30.26 "HgN/A
6:00 AM33 °FChilly.1 mph96%30.27 "HgN/A
5:00 AM30 °FChilly.No wind96%30.27 "HgN/A
4:00 AM27 °FChilly.1 mph94%30.28 "HgN/A
3:00 AM30 °FChilly.No wind93%30.27 "HgN/A
2:00 AM31 °FChilly.No wind88%30.27 "HgN/A
1:00 AM34 °FChilly.3 mph81%30.26 "HgN/A
12:00 AM32 °FChilly.1 mph87%30.26 "HgN/A
11:00 PM
Thu, May 5
36 °FChilly.2 mph83%30.26 "HgN/A
10:00 PM42 °FQuite cool.1 mph68%30.24 "HgN/A
9:00 PM51 °FCool.3 mph57%30.22 "HgN/A
8:00 PM54 °FCool.3 mph44%30.20 "HgN/A
7:00 PM58 °FRefreshingly cool.6 mph33%30.20 "HgN/A
6:00 PM60 °FRefreshingly cool.7 mph29%30.20 "HgN/A
5:00 PM61 °FRefreshingly cool.5 mph31%30.21 "HgN/A
Weather by CustomWeather, © 2016

See weather overviewHow to use our weather pages